Content
SEND FEEDBACK

Daily
Averages
Monthly
Summary
France

BAREGES, FRANCE


Home > Europe > France
Elevation: 9383 feet     Latitude: 42 54N     Longitude: 000 06E

WEATHER
 
SELECT A DAY
Number of Records: 193,140;   Date Range: 7/1/96 - 7/20/14
 
SHARE

PRINT THIS DATA

[ ← Previous Day ]
WEATHER ALMANAC - JANUARY 3, 2013
[ Next Day → ]
[ °C ]   °F
Weather ElementAverageHighLow
Temperature37.7 °F50 °F (2:30 pm)28.4 °F (8:00 am)
Dewpoint32.2 °F37.4 °F (1:00 pm)28.4 °F (5:30 am)
Humidity81.6 %100 % (3:00 am)58 % (2:30 pm)
Barometer30.66 in30.75 in (7:00 pm)30.54 in (12:30 am)
Wind Speed3.6 mph9.2 mph (1:30 pm)
Weather ElementAverage
Visibility7.3 mi
Wind DirectionE (93.9 °)

Weather ElementTotal
Precipitation---
Heating Degree Days25.8 (Base 65)
Averaged from 51 records on January 3, 2013
WEATHER CONDITIONS BREAKOUT
WIND DIRECTION BREAKOUT
WEATHER BY HOUR - JANUARY 3, 2013
[ °C ]   °F
Local TimeTemperatureDewpointHumidityBarometerVisibilityWind DirectionWind SpeedGust SpeedPrecipitationEventsConditions
12:30 AM35.6 °F33.8 °F93 %30.54 in6.2 miSSE (150°)1.2 mphOvercast
1:00 AM34.0 °F32.0 °F91 %30.62 in6.0 miSouth (170°)3.5 mphClear
1:00 AM33.8 °F32.0 °F93 %30.54 in6.2 miSouth (170°)3.5 mphMostly Cloudy
1:30 AM33.8 °F32.0 °F93 %30.57 in6.2 miVariable1.2 mphScattered Clouds
2:00 AM33.8 °F32.0 °F93 %30.57 in6.2 miSSW (200°)1.2 mph
2:30 AM32.0 °F30.2 °F93 %30.57 in6.2 miVariable2.3 mph
3:00 AM32.0 °F32.0 °F100 %30.57 in6.2 miSSE (160°)3.5 mphPartly Cloudy
3:30 AM32.0 °F30.2 °F93 %30.60 in6.2 miSW (220°)2.3 mph
4:00 AM30.2 °F30.2 °F100 %30.60 in6.2 miSouth (190°)3.5 mph
4:30 AM30.2 °F30.2 °F100 %30.57 in6.2 miSouth (170°)2.3 mph
5:00 AM30.2 °F30.2 °F100 %30.60 in6.2 miSouth (190°)2.3 mph
5:30 AM30.2 °F28.4 °F93 %30.60 in6.2 miSW (230°)2.3 mph
6:00 AM30.2 °F28.4 °F93 %30.60 in6.2 miCalm
6:30 AM30.2 °F28.4 °F93 %30.63 in6.2 miSouth (180°)3.5 mph
7:00 AM30.0 °F29.0 °F92 %30.70 in31.0 miSSE (160°)3.5 mphClear
7:00 AM30.2 °F28.4 °F93 %30.63 in6.2 miSSE (160°)3.5 mph
7:30 AM30.2 °F28.4 °F93 %30.63 in6.2 miSouth (190°)4.6 mph
8:00 AM28.4 °F28.4 °F100 %30.66 in6.2 miSouth (180°)3.5 mphPartly Cloudy
8:30 AM30.2 °F28.4 °F93 %30.66 in6.2 miSouth (170°)3.5 mph
9:00 AM30.2 °F28.4 °F93 %30.66 in6.2 miSSE (160°)3.5 mphScattered Clouds
9:30 AM32.0 °F30.2 °F93 %30.69 in6.2 miSouth (170°)2.3 mphOvercast
10:00 AM35.6 °F32.0 °F87 %30.69 in6.2 miSouth (180°)4.6 mphMostly Cloudy
10:30 AM37.4 °F33.8 °F87 %30.69 in6.2 miSouth (170°)2.3 mphMostly Cloudy
11:00 AM42.8 °F33.8 °F70 %30.69 in6.2 miSSE (160°)3.5 mphOvercast
11:30 AM44.6 °F32.0 °F61 %30.69 in6.2 miVariable2.3 mphOvercast
12:00 PM44.6 °F35.6 °F71 %30.69 in6.2 miVariable3.5 mphOvercast
12:30 PM46.4 °F35.6 °F66 %30.69 in6.2 miNNE (20°)5.8 mphOvercast
1:00 PM46.0 °F37.0 °F63 %30.71 in19.0 miNorth (10°)8.1 mphClear
1:00 PM46.4 °F37.4 °F71 %30.69 in6.2 miNorth (10°)8.1 mphOvercast
1:30 PM46.4 °F35.6 °F66 %30.66 in6.2 miNNE (30°)9.2 mphPartly Cloudy
2:00 PM48.2 °F37.4 °F66 %30.66 in6.2 miNNE (30°)8.1 mph
2:30 PM50.0 °F35.6 °F58 %30.66 in6.2 miNE (40°)5.8 mphPartly Cloudy
3:00 PM50.0 °F35.6 °F58 %30.66 in6.2 miNE (40°)8.1 mph
3:30 PM50.0 °F35.6 °F58 %30.66 in6.2 miNE (40°)6.9 mph
4:00 PM50.0 °F35.6 °F58 %30.66 in6.2 miNE (50°)5.8 mph
4:30 PM50.0 °F35.6 °F58 %30.66 in6.2 miNE (50°)4.6 mph
5:00 PM48.2 °F33.8 °F58 %30.66 in6.2 miNE (40°)5.8 mph
5:30 PM44.6 °F35.6 °F71 %30.69 in6.2 miNNE (30°)4.6 mph
6:00 PM44.6 °F33.8 °F66 %30.69 in6.2 miNE (40°)2.3 mph
6:30 PM42.8 °F33.8 °F70 %30.69 in6.2 miVariable1.2 mph
7:00 PM42.0 °F33.0 °F59 %30.75 in25.0 miNE (50°)3.5 mphClear
7:00 PM42.8 °F32.0 °F66 %30.71 in6.2 miVariable3.5 mph
7:30 PM39.2 °F32.0 °F75 %30.71 in6.2 miCalm
8:00 PM35.6 °F32.0 °F87 %30.71 in6.2 miVariable2.3 mph
8:30 PM33.8 °F32.0 °F93 %30.71 in6.2 miSSE (150°)2.3 mph
9:00 PM33.8 °F30.2 °F87 %30.71 in6.2 miVariable2.3 mph
9:30 PM35.6 °F33.8 °F93 %30.71 in6.2 miNE (40°)2.3 mph
10:00 PM33.8 °F30.2 °F87 %30.71 in6.2 miVariable2.3 mph
10:30 PM33.8 °F30.2 °F87 %30.71 in6.2 miVariable2.3 mph
11:00 PM32.0 °F30.2 °F93 %30.71 in6.2 miSSW (200°)3.5 mph
11:30 PM32.0 °F28.4 °F87 %30.71 in6.2 miSouth (190°)2.3 mph
Hourly data recorded from LFBT, located miles away from Bareges, France







STORIES FROM OUR PARTNERS